TimeMDT,TemperatureF,Dew PointF,Humidity,Sea Level PressureIn,VisibilityMPH,Wind Direction,Wind SpeedMPH,Gust SpeedMPH,PrecipitationIn,Events,Conditions,WindDirDegrees,DateUTC
12:53 AM,51.1,37.0,59,29.85,10.0,SW,20.7,-,N/A,,Clear,230,2013-09-29 06:53:00
1:53 AM,51.1,36.0,56,29.83,10.0,SW,24.2,29.9,N/A,,Clear,230,2013-09-29 07:53:00
2:53 AM,51.1,36.0,56,29.79,10.0,SW,17.3,25.3,N/A,,Clear,230,2013-09-29 08:53:00
3:53 AM,48.9,37.0,64,29.77,10.0,SW,20.7,-,N/A,,Clear,230,2013-09-29 09:53:00
4:53 AM,50.0,36.0,59,29.76,10.0,SW,20.7,29.9,N/A,,Clear,230,2013-09-29 10:53:00
5:53 AM,51.1,36.0,56,29.75,10.0,SW,21.9,28.8,N/A,,Clear,220,2013-09-29 11:53:00
6:53 AM,50.0,36.0,59,29.75,10.0,SW,21.9,-,N/A,,Clear,230,2013-09-29 12:53:00
7:53 AM,52.0,35.1,53,29.76,10.0,SW,23.0,-,N/A,,Clear,220,2013-09-29 13:53:00
8:53 AM,55.9,37.0,49,29.74,10.0,SSW,24.2,32.2,N/A,,Clear,210,2013-09-29 14:53:00
9:53 AM,60.1,37.0,42,29.71,10.0,SW,21.9,32.2,N/A,,Clear,220,2013-09-29 15:53:00
10:53 AM,64.9,37.0,36,29.68,10.0,SW,23.0,39.1,N/A,,Clear,220,2013-09-29 16:53:00
11:53 AM,64.0,37.9,38,29.66,10.0,SSW,24.2,29.9,N/A,,Clear,210,2013-09-29 17:53:00
12:53 PM,64.0,36.0,35,29.65,10.0,SW,24.2,31.1,N/A,,Clear,220,2013-09-29 18:53:00
1:53 PM,66.0,37.9,36,29.62,10.0,SW,19.6,31.1,N/A,,Clear,220,2013-09-29 19:53:00
2:53 PM,66.9,36.0,32,29.60,10.0,WSW,25.3,32.2,N/A,,Clear,240,2013-09-29 20:53:00
3:53 PM,66.9,36.0,32,29.61,10.0,West,20.7,31.1,N/A,,Clear,260,2013-09-29 21:53:00
4:53 PM,64.9,37.0,36,29.63,10.0,WSW,18.4,-,N/A,,Clear,250,2013-09-29 22:53:00
5:53 PM,63.0,37.0,38,29.65,10.0,WSW,13.8,-,N/A,,Clear,240,2013-09-29 23:53:00
6:53 PM,62.1,36.0,38,29.65,10.0,WSW,16.1,-,N/A,,Clear,240,2013-09-30 00:53:00
7:53 PM,59.0,36.0,42,29.66,10.0,WSW,12.7,-,N/A,,Clear,250,2013-09-30 01:53:00
8:53 PM,55.9,37.0,49,29.67,10.0,WSW,8.1,-,N/A,,Clear,240,2013-09-30 02:53:00
9:53 PM,60.1,35.1,39,29.65,10.0,WSW,20.7,-,N/A,,Clear,250,2013-09-30 03:53:00
10:53 PM,57.9,35.1,42,29.66,10.0,WSW,16.1,-,N/A,,Clear,250,2013-09-30 04:53:00
11:53 PM,57.0,35.1,44,29.66,10.0,WSW,16.1,-,N/A,,Clear,240,2013-09-30 05:53:00